Location: Kerguer�zec
(48.4509°N, 4.7600°W)
Time: 23:39:22
(UTC+00:00)

Nadezhda 3 Rocket - Pass Details

Date: 09 April 2020
Orbit: 956 x 1000 km, 82.9° (Epoch: 23 May)

Event Time Altitude Azimuth Distance (km) Brightness Sun altitude
Exits shadow 21:41:25 50° 140° (SE) 1,243 4.1 -23.6°
Maximum altitude 21:42:45 61° 93° (E) 1,117 4.0 -23.8°
Drops below altitude 10° 21:48:55 10° 15° (NNE) 2,741 6.7 -24.5°
Sets 21:51:27 0° 12° (NNE) 3,687 7.5 -24.7°
